Tracking 27112 objects as of 28-Mar-2023
HD Live streaming from Space Station
objects crossing your sky now

ONEWEB-0217

Track ONEWEB-0217 now!
10-day predictions
ONEWEB-0217 is classified as:


NORAD ID: 48245
Int'l Code: 2021-031AM
Perigee: 1,211.1 km
Apogee: 1,214.8 km
Inclination: 87.9 °
Period: 109.5 minutes
Semi major axis: 7583 km
RCS: Unknown
Launch date: April 25, 2021
Source: United Kingdom (UK)
Launch site: VOSTOCHNY COSMODROME (VOSTO)
Your satellite tracking list
Your tracking list is empty




NASA's NSSDC Master Catalog

Two Line Element Set (TLE):
1 48245U 21031AM  23086.90248950  .00000210  00000-0  53137-3 0  9991
2 48245  87.9116 163.9086 0002472 107.7439 252.3960 13.14502211 93511
Source of the keplerian elements: AFSPC